7 * 24
多渠道服务支持
STARLINK-36873(NORAD编号67948)是SpaceX星链星座的第二代低轨宽带通信卫星,隶属于星链全球卫星互联网组网计划。作为星链迭代后的V2 mini型号卫星,它采用相控阵天线设计,支持多波束同时接入地面终端与信关站,单星通信容量相比初代显著提升,配备25Gbps星间激光链路,可实现低延迟星际数据传输,大幅优化网络路由效率。卫星采用亮度抑制技术,通过介电镜面薄膜降低地面观测亮度,减少天文观测干扰,同时优化了离轨设计,故障后可更快再入大气层,提升太空可持续性,服务全球偏远地区及移动场景的高速互联网接入。
美国
(US)
| 数据来源 | 国际轨道数据 |
| 星历时间: | 2026-07-27T11:34:01+0800 23小时前 查看轨道信息 |
| 半长轴: | 6861.137km |
| 偏心率: | 0.0001385 |
| 轨道倾角: | 43.002° |
| 近地点辐角 | 270.755° |
| 升交点赤经 | 122.744° |
| 平近点角 | 89.314° |
| 近地点: | 482.049km |
| 远地点: | 483.951km |
| 周期: | 94.266分钟 |
| 每日圈数: | 15.275964 |